Simultaneous Nadir Overpasses (SNOs) Predictions

Prediction of SNOs between GOES-14 and AQUA Satellite Orbit:

Table of predicted SNOs for the next 14.0 days since TLE Epoch: 6/24/2023
Index Date Time (GOES-14) GOES-14 Lat,Lon AQUA Lat,Lon Distance(km) Time Diff (sec)
1 06/24/2023 08:52:44 -0.09,-108.67 -0.75,-105.46 365.07 80
2 06/24/2023 21:10:57 0.12,-108.58 -0.32,-110.52 221.20 80
3 06/26/2023 20:59:28 0.12,-108.58 0.44,-107.07 171.50 80
4 06/27/2023 09:17:33 -0.15,-108.68 0.61,-112.10 390.12 80
5 06/29/2023 09:03:23 -0.14,-108.67 -0.14,-108.65 2.54 80
6 07/01/2023 08:51:52 -0.14,-108.66 -0.86,-105.18 394.32 80
7 07/01/2023 21:10:06 0.17,-108.55 -0.19,-110.25 193.20 80
8 07/03/2023 20:58:35 0.17,-108.54 0.57,-106.80 198.72 80
9 07/04/2023 09:16:39 -0.20,-108.64 0.51,-111.82 362.12 80
10 07/06/2023 09:05:07 -0.20,-108.62 -0.24,-108.35 30.09 80
